SKYSAT-C1

Last updated on Tue Oct 15 2024 00:02:24 GMT+0000 (Coordinated Universal Time)

1 41601U 16040C 24288.58872411 .00016400 00000+0 56011-3 0 9999 2 41601 97.0474 343.0240 0002311 102.2616 257.8884 15.30372218464408
UTC large
Height (km)
Speed (km/s)
/
Latitude / Longitude
Inclination (degrees)
Orbital Period (minutes)
Azimuth
Elevation
Range (km)
Doppler Factor

Next 0 passes for location: London (51.5072 / 0.1276)

Sorry there are no passes over London.